| time (UTC) | temp F | wind direction | speed MPH | gust MPH | rain 1hr in | rain 24hr in | rain mn in | humidity % | barometer mb |
| 20260509173057 | 88 | 57 | 3.0 | 6.0 | 0.00 | 0.00 | 0.00 | 15 | 1014.0 |
| 20260509172551 | 88 | 320 | 1.0 | 6.0 | 0.00 | 0.00 | 0.00 | 16 | 1014.0 |
| 20260509172052 | 88 | 315 | 1.0 | 5.0 | 0.00 | 0.00 | 0.00 | 16 | 1014.0 |
| 20260509171551 | 88 | 0 | 2.0 | 9.0 | 0.00 | 0.00 | 0.00 | 16 | 1014.0 |
| 20260509171054 | 87 | 317 | 2.0 | 9.0 | 0.00 | 0.00 | 0.00 | 16 | 1014.1 |
| 20260509170548 | 87 | 360 | 1.0 | 8.0 | 0.00 | 0.00 | 0.00 | 16 | 1014.1 |
| 20260509170101 | 87 | 65 | 3.0 | 8.0 | 0.00 | 0.00 | 0.00 | 16 | 1014.1 |
| 20260509165555 | 86 | 360 | 2.0 | 6.0 | 0.00 | 0.00 | 0.00 | 17 | 1014.1 |
| 20260509165052 | 86 | 69 | 2.0 | 5.0 | 0.00 | 0.00 | 0.00 | 17 | 1014.0 |
| 20260509164553 | 86 | 69 | 3.0 | 5.0 | 0.00 | 0.00 | 0.00 | 17 | 1014.0 |
| 20260509164055 | 86 | 69 | 2.0 | 5.0 | 0.00 | 0.00 | 0.00 | 17 | 1014.1 |
| 20260509163552 | 86 | 360 | 1.0 | 5.0 | 0.00 | 0.00 | 0.00 | 18 | 1014.1 |
| 20260509163102 | 85 | 360 | 1.0 | 5.0 | 0.00 | 0.00 | 0.00 | 18 | 1014.1 |
| 20260509162552 | 84 | 360 | 1.0 | 5.0 | 0.00 | 0.00 | 0.00 | 18 | 1014.1 |
| 20260509162052 | 84 | 73 | 2.0 | 5.0 | 0.00 | 0.00 | 0.00 | 19 | 1014.2 |
| 20260509161557 | 84 | 74 | 1.0 | 4.0 | 0.00 | 0.00 | 0.00 | 19 | 1014.1 |
| 20260509161101 | 83 | 360 | 2.0 | 6.0 | 0.00 | 0.00 | 0.00 | 20 | 1014.1 |
| 20260509160551 | 82 | 360 | 1.0 | 6.0 | 0.00 | 0.00 | 0.00 | 20 | 1014.1 |
| 20260509160057 | 82 | 360 | 2.0 | 6.0 | 0.00 | 0.00 | 0.00 | 20 | 1014.1 |
| 20260509155552 | 82 | 360 | 2.0 | 5.0 | 0.00 | 0.00 | 0.00 | 20 | 1014.1 |
| 20260509155052 | 81 | 360 | 2.0 | 5.0 | 0.00 | 0.00 | 0.00 | 21 | 1014.1 |
| 20260509154606 | 81 | 360 | 2.0 | 5.0 | 0.00 | 0.00 | 0.00 | 21 | 1014.2 |
| 20260509154047 | 80 | 360 | 2.0 | 5.0 | 0.00 | 0.00 | 0.00 | 22 | 1014.1 |
| 20260509153551 | 80 | 360 | 2.0 | 5.0 | 0.00 | 0.00 | 0.00 | 22 | 1014.1 |
| 20260509153058 | 79 | 360 | 2.0 | 5.0 | 0.00 | 0.00 | 0.00 | 23 | 1014.1 |
| 20260509152554 | 78 | 360 | 3.0 | 5.0 | 0.00 | 0.00 | 0.00 | 23 | 1014.0 |
| 20260509152053 | 79 | 360 | 2.0 | 5.0 | 0.00 | 0.00 | 0.00 | 23 | 1014.1 |
| 20260509151605 | 78 | 360 | 2.0 | 5.0 | 0.00 | 0.00 | 0.00 | 23 | 1014.0 |
| 20260509151055 | 78 | 360 | 3.0 | 5.0 | 0.00 | 0.00 | 0.00 | 23 | 1014.0 |
| 20260509150551 | 78 | 360 | 2.0 | 5.0 | 0.00 | 0.00 | 0.00 | 24 | 1014.0 |
| 20260509150108 | 78 | 360 | 2.0 | 5.0 | 0.00 | 0.00 | 0.00 | 24 | 1014.1 |
| 20260509145552 | 78 | 360 | 3.0 | 5.0 | 0.00 | 0.00 | 0.00 | 24 | 1014.1 |
| 20260509145052 | 78 | 360 | 3.0 | 5.0 | 0.00 | 0.00 | 0.00 | 24 | 1014.0 |
| 20260509144601 | 78 | 360 | 2.0 | 5.0 | 0.00 | 0.00 | 0.00 | 24 | 1014.1 |
| 20260509144051 | 78 | 360 | 2.0 | 4.0 | 0.00 | 0.00 | 0.00 | 25 | 1014.1 |
| 20260509143551 | 77 | 360 | 0.0 | 4.0 | 0.00 | 0.00 | 0.00 | 24 | 1014.1 |
| 20260509143104 | 77 | 360 | 1.0 | 4.0 | 0.00 | 0.00 | 0.00 | 26 | 1014.0 |
| 20260509142551 | 77 | 75 | 1.0 | 3.0 | 0.00 | 0.00 | 0.00 | 25 | 1014.0 |
| 20260509142048 | 77 | 75 | 1.0 | 3.0 | 0.00 | 0.00 | 0.00 | 25 | 1013.9 |
| 20260509141554 | 76 | 0 | 0.0 | 3.0 | 0.00 | 0.00 | 0.00 | 26 | 1013.9 |
| 20260509141049 | 76 | 75 | 0.0 | 3.0 | 0.00 | 0.00 | 0.00 | 26 | 1013.9 |
| 20260509140551 | 76 | 0 | 0.0 | 0.0 | 0.00 | 0.00 | 0.00 | 27 | 1013.8 |
| 20260509140104 | 75 | 0 | 0.0 | 0.0 | 0.00 | 0.00 | 0.00 | 28 | 1013.8 |
| 20260509135552 | 75 | 0 | 0.0 | 0.0 | 0.00 | 0.00 | 0.00 | 28 | 1013.8 |
| 20260509135052 | 73 | 0 | 0.0 | 0.0 | 0.00 | 0.00 | 0.00 | 30 | 1013.7 |
| 20260509134556 | 72 | 0 | 0.0 | 0.0 | 0.00 | 0.00 | 0.00 | 30 | 1013.7 |
| 20260509134055 | 71 | 0 | 0.0 | 0.0 | 0.00 | 0.00 | 0.00 | 32 | 1013.6 |
| 20260509133551 | 69 | 0 | 0.0 | 0.0 | 0.00 | 0.00 | 0.00 | 34 | 1013.5 |
| 20260509133106 | 68 | 0 | 0.0 | 0.0 | 0.00 | 0.00 | 0.00 | 34 | 1013.5 |
| 20260509132552 | 67 | 0 | 0.0 | 0.0 | 0.00 | 0.00 | 0.00 | 36 | 1013.5 |
| 20260509132052 | 66 | 0 | 0.0 | 0.0 | 0.00 | 0.00 | 0.00 | 38 | 1013.6 |
| 20260509131555 | 65 | 0 | 0.0 | 0.0 | 0.00 | 0.00 | 0.00 | 40 | 1013.5 |
| 20260509131051 | 64 | 0 | 0.0 | 0.0 | 0.00 | 0.00 | 0.00 | 41 | 1013.5 |
| 20260509130551 | 63 | 0 | 0.0 | 0.0 | 0.00 | 0.00 | 0.00 | 41 | 1013.4 |
| 20260509130101 | 63 | 0 | 0.0 | 0.0 | 0.00 | 0.00 | 0.00 | 42 | 1013.3 |
| 20260509125551 | 63 | 0 | 0.0 | 0.0 | 0.00 | 0.00 | 0.00 | 41 | 1013.2 |
| 20260509125051 | 62 | 0 | 0.0 | 0.0 | 0.00 | 0.00 | 0.00 | 41 | 1013.2 |
| 20260509124558 | 62 | 0 | 0.0 | 0.0 | 0.00 | 0.00 | 0.00 | 42 | 1013.1 |
| 20260509124051 | 62 | 0 | 0.0 | 0.0 | 0.00 | 0.00 | 0.00 | 42 | 1013.1 |
| 20260509123552 | 62 | 0 | 0.0 | 0.0 | 0.00 | 0.00 | 0.00 | 42 | 1013.1 |
| 20260509123101 | 62 | 0 | 0.0 | 0.0 | 0.00 | 0.00 | 0.00 | 42 | 1013.1 |
| 20260509122551 | 62 | 0 | 0.0 | 0.0 | 0.00 | 0.00 | 0.00 | 42 | 1013.1 |
| 20260509122051 | 62 | 0 | 0.0 | 0.0 | 0.00 | 0.00 | 0.00 | 42 | 1013.0 |
| 20260509121559 | 62 | 0 | 0.0 | 0.0 | 0.00 | 0.00 | 0.00 | 41 | 1013.0 |
| 20260509121051 | 62 | 0 | 0.0 | 0.0 | 0.00 | 0.00 | 0.00 | 41 | 1013.0 |
| 20260509120552 | 63 | 0 | 0.0 | 0.0 | 0.00 | 0.00 | 0.00 | 40 | 1012.9 |
| 20260509120052 | 63 | 0 | 0.0 | 0.0 | 0.00 | 0.00 | 0.00 | 40 | 1012.9 |
| 20260509115554 | 63 | 0 | 0.0 | 0.0 | 0.00 | 0.00 | 0.00 | 40 | 1012.9 |
| 20260509115051 | 63 | 0 | 0.0 | 0.0 | 0.00 | 0.00 | 0.00 | 40 | 1012.9 |
| 20260509114603 | 64 | 0 | 0.0 | 0.0 | 0.00 | 0.00 | 0.00 | 40 | 1012.8 |
| 20260509114048 | 64 | 0 | 0.0 | 0.0 | 0.00 | 0.00 | 0.00 | 39 | 1012.9 |
| 20260509113556 | 64 | 0 | 0.0 | 0.0 | 0.00 | 0.00 | 0.00 | 38 | 1012.8 |
| 20260509113051 | 64 | 0 | 0.0 | 0.0 | 0.00 | 0.00 | 0.00 | 38 | 1012.8 |
| 20260509112552 | 65 | 0 | 0.0 | 0.0 | 0.00 | 0.00 | 0.00 | 38 | 1012.8 |
| 20260509112052 | 65 | 0 | 0.0 | 0.0 | 0.00 | 0.00 | 0.00 | 38 | 1012.9 |
| 20260509111554 | 65 | 0 | 0.0 | 0.0 | 0.00 | 0.00 | 0.00 | 37 | 1012.8 |
| 20260509111052 | 64 | 0 | 0.0 | 0.0 | 0.00 | 0.00 | 0.00 | 38 | 1012.8 |
| 20260509110552 | 64 | 0 | 0.0 | 0.0 | 0.00 | 0.00 | 0.00 | 38 | 1012.8 |
| 20260509110052 | 64 | 0 | 0.0 | 0.0 | 0.00 | 0.00 | 0.00 | 38 | 1012.7 |
| 20260509105554 | 65 | 0 | 0.0 | 0.0 | 0.00 | 0.00 | 0.00 | 37 | 1012.7 |
| 20260509105052 | 65 | 0 | 0.0 | 0.0 | 0.00 | 0.00 | 0.00 | 37 | 1012.7 |
| 20260509104552 | 65 | 0 | 0.0 | 0.0 | 0.00 | 0.00 | 0.00 | 37 | 1012.7 |
| 20260509104051 | 65 | 0 | 0.0 | 0.0 | 0.00 | 0.00 | 0.00 | 36 | 1012.6 |
| 20260509103551 | 66 | 0 | 0.0 | 0.0 | 0.00 | 0.00 | 0.00 | 36 | 1012.6 |
| 20260509103053 | 66 | 0 | 0.0 | 0.0 | 0.00 | 0.00 | 0.00 | 35 | 1012.7 |
| 20260509102551 | 67 | 0 | 0.0 | 0.0 | 0.00 | 0.00 | 0.00 | 34 | 1012.6 |
| 20260509102051 | 67 | 0 | 0.0 | 0.0 | 0.00 | 0.00 | 0.00 | 34 | 1012.7 |
| 20260509101554 | 67 | 0 | 0.0 | 0.0 | 0.00 | 0.00 | 0.00 | 33 | 1012.7 |
| 20260509101051 | 67 | 0 | 0.0 | 0.0 | 0.00 | 0.00 | 0.00 | 33 | 1012.7 |
| 20260509100551 | 67 | 0 | 0.0 | 0.0 | 0.00 | 0.00 | 0.00 | 33 | 1012.6 |
| 20260509100053 | 68 | 0 | 0.0 | 0.0 | 0.00 | 0.00 | 0.00 | 33 | 1012.6 |
| 20260509095551 | 68 | 0 | 0.0 | 0.0 | 0.00 | 0.00 | 0.00 | 32 | 1012.6 |
| 20260509095108 | 68 | 0 | 0.0 | 0.0 | 0.00 | 0.00 | 0.00 | 32 | 1012.7 |
| 20260509094604 | 68 | 0 | 0.0 | 0.0 | 0.00 | 0.00 | 0.00 | 32 | 1012.6 |
| 20260509094054 | 68 | 0 | 0.0 | 0.0 | 0.00 | 0.00 | 0.00 | 32 | 1012.7 |
| 20260509093553 | 69 | 0 | 0.0 | 0.0 | 0.00 | 0.00 | 0.00 | 32 | 1012.6 |
| 20260509093054 | 69 | 0 | 0.0 | 0.0 | 0.00 | 0.00 | 0.00 | 31 | 1012.6 |
| 20260509092553 | 69 | 0 | 0.0 | 0.0 | 0.00 | 0.00 | 0.00 | 31 | 1012.5 |
| 20260509092053 | 69 | 0 | 0.0 | 0.0 | 0.00 | 0.00 | 0.00 | 31 | 1012.7 |
| 20260509091601 | 70 | 0 | 0.0 | 0.0 | 0.00 | 0.00 | 0.00 | 30 | 1012.7 |
| 20260509091053 | 70 | 0 | 0.0 | 2.0 | 0.00 | 0.00 | 0.00 | 30 | 1012.6 |
| 20260509090553 | 70 | 0 | 0.0 | 2.0 | 0.00 | 0.00 | 0.00 | 30 | 1012.7 |
| 20260509090123 | 71 | 360 | 0.0 | 2.0 | 0.00 | 0.00 | 0.00 | 29 | 1012.7 |
| 20260509085554 | 71 | 360 | 0.0 | 2.0 | 0.00 | 0.00 | 0.00 | 28 | 1012.7 |
| 20260509085057 | 72 | 0 | 0.0 | 3.0 | 0.00 | 0.00 | 0.00 | 27 | 1012.7 |
| 20260509084603 | 72 | 0 | 0.0 | 3.0 | 0.00 | 0.00 | 0.00 | 27 | 1012.6 |
| 20260509084053 | 72 | 0 | 1.0 | 3.0 | 0.00 | 0.00 | 0.00 | 27 | 1012.7 |
| 20260509083551 | 72 | 360 | 0.0 | 1.0 | 0.00 | 0.00 | 0.00 | 27 | 1012.7 |
| 20260509083056 | 73 | 0 | 0.0 | 2.0 | 0.00 | 0.00 | 0.00 | 26 | 1012.7 |
| 20260509082548 | 74 | 0 | 0.0 | 2.0 | 0.00 | 0.00 | 0.00 | 25 | 1012.6 |
| 20260509082049 | 74 | 360 | 0.0 | 3.0 | 0.00 | 0.00 | 0.00 | 25 | 1012.6 |
| 20260509081553 | 74 | 0 | 0.0 | 3.0 | 0.00 | 0.00 | 0.00 | 25 | 1012.6 |
| 20260509081050 | 75 | 0 | 0.0 | 3.0 | 0.00 | 0.00 | 0.00 | 24 | 1012.5 |
| 20260509080550 | 76 | 0 | 0.0 | 3.0 | 0.00 | 0.00 | 0.00 | 23 | 1012.6 |
| 20260509080109 | 77 | 0 | 0.0 | 3.0 | 0.00 | 0.00 | 0.00 | 22 | 1012.6 |
| 20260509075550 | 78 | 360 | 1.0 | 3.0 | 0.00 | 0.00 | 0.00 | 21 | 1012.5 |
| 20260509075052 | 79 | 360 | 0.0 | 5.0 | 0.00 | 0.00 | 0.00 | 21 | 1012.5 |
| 20260509074600 | 80 | 360 | 1.0 | 5.0 | 0.00 | 0.00 | 0.00 | 20 | 1012.5 |
| 20260509074052 | 80 | 360 | 0.0 | 5.0 | 0.00 | 0.00 | 0.00 | 20 | 1012.5 |
| 20260509073552 | 80 | 0 | 1.0 | 6.0 | 0.00 | 0.00 | 0.00 | 20 | 1012.5 |
| 20260509073106 | 81 | 360 | 3.0 | 9.0 | 0.00 | 0.00 | 0.00 | 20 | 1012.6 |
| 20260509072549 | 81 | 360 | 3.0 | 9.0 | 0.00 | 0.00 | 0.00 | 20 | 1012.6 |
| 20260509072050 | 81 | 360 | 3.0 | 13.0 | 0.00 | 0.00 | 0.00 | 20 | 1012.6 |
| 20260509071603 | 81 | 360 | 3.0 | 13.0 | 0.00 | 0.00 | 0.00 | 20 | 1012.5 |
| 20260509071049 | 81 | 360 | 5.0 | 13.0 | 0.00 | 0.00 | 0.00 | 20 | 1012.6 |
| 20260509070550 | 81 | 360 | 4.0 | 12.0 | 0.00 | 0.00 | 0.00 | 20 | 1012.7 |
| 20260509065551 | 81 | 360 | 5.0 | 12.0 | 0.00 | 0.00 | 0.00 | 20 | 1012.6 |
| 20260509065049 | 81 | 360 | 5.0 | 11.0 | 0.00 | 0.00 | 0.00 | 20 | 1012.7 |
| 20260509064556 | 80 | 360 | 4.0 | 10.0 | 0.00 | 0.00 | 0.00 | 20 | 1012.7 |
| 20260509064051 | 79 | 360 | 3.0 | 10.0 | 0.00 | 0.00 | 0.00 | 21 | 1012.7 |
| 20260509063549 | 77 | 360 | 4.0 | 10.0 | 0.00 | 0.00 | 0.00 | 22 | 1012.7 |
| 20260509063107 | 75 | 360 | 2.0 | 6.0 | 0.00 | 0.00 | 0.00 | 21 | 1012.7 |
| 20260509062548 | 74 | 0 | 0.0 | 2.0 | 0.00 | 0.00 | 0.00 | 20 | 1012.7 |
| 20260509062051 | 73 | 0 | 0.0 | 0.0 | 0.00 | 0.00 | 0.00 | 21 | 1012.7 |
| 20260509061557 | 74 | 0 | 0.0 | 0.0 | 0.00 | 0.00 | 0.00 | 22 | 1012.7 |
| 20260509061050 | 74 | 0 | 0.0 | 0.0 | 0.00 | 0.00 | 0.00 | 22 | 1012.7 |
| 20260509060552 | 74 | 0 | 0.0 | 0.0 | 0.00 | 0.00 | 0.00 | 21 | 1012.6 |
| 20260509060054 | 75 | 0 | 0.0 | 0.0 | 0.00 | 0.00 | 0.00 | 21 | 1012.6 |
| 20260509055552 | 75 | 0 | 0.0 | 0.0 | 0.00 | 0.00 | 0.00 | 21 | 1012.7 |
| 20260509055051 | 76 | 0 | 0.0 | 0.0 | 0.00 | 0.00 | 0.00 | 20 | 1012.6 |
| 20260509054555 | 77 | 0 | 0.0 | 2.0 | 0.00 | 0.00 | 0.00 | 20 | 1012.6 |
| 20260509054051 | 78 | 0 | 0.0 | 2.0 | 0.00 | 0.00 | 0.00 | 19 | 1012.6 |
| 20260509053552 | 78 | 360 | 0.0 | 2.0 | 0.00 | 0.00 | 0.00 | 18 | 1012.6 |
| 20260509053156 | 78 | 0 | 0.0 | 0.0 | 0.00 | 0.00 | 0.00 | 18 | 1012.6 |
| 20260509052557 | 79 | 0 | 0.0 | 0.0 | 0.00 | 0.00 | 0.00 | 18 | 1012.6 |
| 20260509052054 | 80 | 0 | 0.0 | 2.0 | 0.00 | 0.00 | 0.00 | 18 | 1012.6 |
| 20260509051603 | 80 | 0 | 0.0 | 2.0 | 0.00 | 0.00 | 0.00 | 17 | 1012.6 |
| 20260509051056 | 81 | 0 | 1.0 | 3.0 | 0.00 | 0.00 | 0.00 | 16 | 1012.5 |
| 20260509050553 | 81 | 360 | 1.0 | 3.0 | 0.00 | 0.00 | 0.00 | 16 | 1012.5 |
| 20260509050100 | 81 | 360 | 1.0 | 3.0 | 0.00 | 0.00 | 0.00 | 16 | 1012.5 |
| 20260509045555 | 81 | 360 | 2.0 | 3.0 | 0.00 | 0.00 | 0.00 | 16 | 1012.5 |
| 20260509045053 | 81 | 360 | 2.0 | 3.0 | 0.00 | 0.00 | 0.00 | 16 | 1012.5 |
| 20260509044556 | 81 | 360 | 2.0 | 3.0 | 0.00 | 0.00 | 0.00 | 16 | 1012.5 |
| 20260509044055 | 81 | 360 | 1.0 | 3.0 | 0.00 | 0.00 | 0.00 | 16 | 1012.4 |
| 20260509043557 | 81 | 360 | 2.0 | 4.0 | 0.00 | 0.00 | 0.00 | 16 | 1012.4 |
| 20260509043101 | 80 | 360 | 2.0 | 4.0 | 0.00 | 0.00 | 0.00 | 16 | 1012.4 |
| 20260509042554 | 80 | 360 | 2.0 | 3.0 | 0.00 | 0.00 | 0.00 | 17 | 1012.3 |
| 20260509042054 | 79 | 360 | 1.0 | 2.0 | 0.00 | 0.00 | 0.00 | 17 | 1012.2 |
| 20260509041556 | 79 | 360 | 1.0 | 4.0 | 0.00 | 0.00 | 0.00 | 17 | 1012.2 |
| 20260509041054 | 80 | 360 | 1.0 | 4.0 | 0.00 | 0.00 | 0.00 | 17 | 1012.2 |
| 20260509040556 | 80 | 360 | 1.0 | 2.0 | 0.00 | 0.00 | 0.00 | 17 | 1012.1 |
| 20260509040051 | 80 | 0 | 0.0 | 3.0 | 0.00 | 0.00 | 0.00 | 16 | 1012.0 |
| 20260509035553 | 80 | 360 | 0.0 | 3.0 | 0.00 | 0.00 | 0.00 | 16 | 1011.9 |
| 20260509035054 | 81 | 360 | 1.0 | 3.0 | 0.00 | 0.00 | 0.00 | 16 | 1012.0 |
| 20260509034604 | 81 | 360 | 1.0 | 4.0 | 0.00 | 0.00 | 0.00 | 15 | 1011.8 |
| 20260509034053 | 81 | 360 | 1.0 | 4.0 | 0.00 | 0.00 | 0.00 | 15 | 1011.8 |
| 20260509033553 | 82 | 360 | 2.0 | 4.0 | 0.00 | 0.00 | 0.00 | 15 | 1011.7 |
| 20260509033105 | 82 | 360 | 1.0 | 3.0 | 0.00 | 0.00 | 0.00 | 15 | 1011.7 |
| 20260509032553 | 82 | 360 | 1.0 | 4.0 | 0.00 | 0.00 | 0.00 | 14 | 1011.6 |
| 20260509032057 | 82 | 360 | 1.0 | 4.0 | 0.00 | 0.00 | 0.00 | 15 | 1011.6 |
| 20260509031558 | 82 | 360 | 2.0 | 4.0 | 0.00 | 0.00 | 0.00 | 14 | 1011.6 |
| 20260509031054 | 82 | 360 | 1.0 | 4.0 | 0.00 | 0.00 | 0.00 | 14 | 1011.5 |
| 20260509030554 | 83 | 360 | 1.0 | 4.0 | 0.00 | 0.00 | 0.00 | 14 | 1011.5 |
| 20260509030054 | 83 | 0 | 1.0 | 4.0 | 0.00 | 0.00 | 0.00 | 14 | 1011.5 |
| 20260509025553 | 83 | 360 | 1.0 | 3.0 | 0.00 | 0.00 | 0.00 | 13 | 1011.4 |
| 20260509025053 | 84 | 360 | 1.0 | 4.0 | 0.00 | 0.00 | 0.00 | 13 | 1011.3 |
| 20260509024604 | 84 | 360 | 1.0 | 4.0 | 0.00 | 0.00 | 0.00 | 13 | 1011.3 |
| 20260509024054 | 85 | 360 | 1.0 | 4.0 | 0.00 | 0.00 | 0.00 | 13 | 1011.3 |
| 20260509023553 | 85 | 360 | 0.0 | 4.0 | 0.00 | 0.00 | 0.00 | 13 | 1011.2 |
| 20260509023051 | 86 | 360 | 1.0 | 5.0 | 0.00 | 0.00 | 0.00 | 12 | 1011.2 |
| 20260509022554 | 86 | 360 | 1.0 | 6.0 | 0.00 | 0.00 | 0.00 | 12 | 1011.1 |
| 20260509022053 | 87 | 360 | 2.0 | 9.0 | 0.00 | 0.00 | 0.00 | 12 | 1011.1 |
| 20260509021555 | 87 | 360 | 2.0 | 9.0 | 0.00 | 0.00 | 0.00 | 11 | 1011.1 |
| 20260509021053 | 87 | 360 | 4.0 | 9.0 | 0.00 | 0.00 | 0.00 | 11 | 1011.0 |
| 20260509020549 | 88 | 360 | 2.0 | 8.0 | 0.00 | 0.00 | 0.00 | 11 | 1010.9 |
| 20260509020056 | 88 | 360 | 2.0 | 8.0 | 0.00 | 0.00 | 0.00 | 11 | 1010.9 |
| 20260509015549 | 88 | 360 | 2.0 | 10.0 | 0.00 | 0.00 | 0.00 | 11 | 1010.8 |
| 20260509015052 | 89 | 360 | 3.0 | 10.0 | 0.00 | 0.00 | 0.00 | 11 | 1010.8 |
| 20260509014553 | 89 | 298 | 3.0 | 10.0 | 0.00 | 0.00 | 0.00 | 11 | 1010.7 |
| 20260509014054 | 90 | 275 | 3.0 | 10.0 | 0.00 | 0.00 | 0.00 | 11 | 1010.7 |
| 20260509013550 | 90 | 310 | 3.0 | 10.0 | 0.00 | 0.00 | 0.00 | 10 | 1010.6 |
| 20260509013055 | 90 | 284 | 4.0 | 11.0 | 0.00 | 0.00 | 0.00 | 10 | 1010.6 |
| 20260509012549 | 90 | 325 | 4.0 | 11.0 | 0.00 | 0.00 | 0.00 | 10 | 1010.7 |
| 20260509012053 | 91 | 281 | 4.0 | 11.0 | 0.00 | 0.00 | 0.00 | 10 | 1010.7 |
| 20260509011603 | 91 | 292 | 3.0 | 12.0 | 0.00 | 0.00 | 0.00 | 10 | 1010.6 |
| 20260509011048 | 91 | 275 | 2.0 | 12.0 | 0.00 | 0.00 | 0.00 | 10 | 1010.7 |
| 20260509010552 | 91 | 317 | 3.0 | 12.0 | 0.00 | 0.00 | 0.00 | 10 | 1010.7 |
| 20260509010057 | 91 | 276 | 5.0 | 12.0 | 0.00 | 0.00 | 0.00 | 9 | 1010.7 |
| 20260509005552 | 91 | 290 | 7.0 | 12.0 | 0.00 | 0.00 | 0.00 | 9 | 1010.7 |
| 20260509005050 | 91 | 290 | 5.0 | 12.0 | 0.00 | 0.00 | 0.00 | 9 | 1010.7 |
| 20260509004559 | 91 | 294 | 5.0 | 11.0 | 0.00 | 0.00 | 0.00 | 9 | 1010.7 |
| 20260509004051 | 92 | 244 | 7.0 | 12.0 | 0.00 | 0.00 | 0.00 | 9 | 1010.7 |
| 20260509003552 | 92 | 286 | 3.0 | 15.0 | 0.00 | 0.00 | 0.00 | 9 | 1010.7 |
| 20260509003054 | 92 | 298 | 7.0 | 15.0 | 0.00 | 0.00 | 0.00 | 9 | 1010.7 |
| 20260509002551 | 92 | 272 | 8.0 | 15.0 | 0.00 | 0.00 | 0.00 | 9 | 1010.7 |
| 20260509002049 | 93 | 306 | 3.0 | 10.0 | 0.00 | 0.00 | 0.00 | 9 | 1010.8 |
| 20260509001555 | 92 | 275 | 4.0 | 15.0 | 0.00 | 0.00 | 0.00 | 9 | 1010.9 |
| 20260509001049 | 92 | 248 | 7.0 | 15.0 | 0.00 | 0.00 | 0.00 | 9 | 1010.9 |
| 20260509000556 | 93 | 299 | 4.0 | 13.0 | 0.00 | 0.00 | 0.00 | 9 | 1010.9 |
| 20260508235552 | 92 | 278 | 5.0 | 12.0 | 0.00 | 0.00 | 0.00 | 9 | 1010.8 |
| 20260508235053 | 92 | 341 | 6.0 | 13.0 | 0.00 | 0.00 | 0.00 | 9 | 1010.8 |
| 20260508234557 | 92 | 298 | 6.0 | 13.0 | 0.00 | 0.00 | 0.00 | 10 | 1010.9 |
| 20260508234055 | 92 | 296 | 8.0 | 13.0 | 0.00 | 0.00 | 0.00 | 9 | 1010.9 |
| 20260508233548 | 93 | 304 | 7.0 | 13.0 | 0.00 | 0.00 | 0.00 | 9 | 1010.9 |
| 20260508233100 | 93 | 271 | 7.0 | 13.0 | 0.00 | 0.00 | 0.00 | 9 | 1010.9 |
| 20260508232551 | 93 | 303 | 6.0 | 13.0 | 0.00 | 0.00 | 0.00 | 9 | 1011.0 |
| 20260508232049 | 93 | 312 | 5.0 | 14.0 | 0.00 | 0.00 | 0.00 | 9 | 1010.9 |
| 20260508231556 | 93 | 263 | 8.0 | 14.0 | 0.00 | 0.00 | 0.00 | 9 | 1011.0 |
| 20260508231050 | 92 | 277 | 4.0 | 15.0 | 0.00 | 0.00 | 0.00 | 9 | 1011.0 |
| 20260508230549 | 93 | 290 | 4.0 | 15.0 | 0.00 | 0.00 | 0.00 | 9 | 1011.1 |
| 20260508230050 | 93 | 325 | 7.0 | 15.0 | 0.00 | 0.00 | 0.00 | 9 | 1011.2 |
| 20260508225549 | 93 | 258 | 2.0 | 13.0 | 0.00 | 0.00 | 0.00 | 10 | 1011.1 |
| 20260508225049 | 93 | 317 | 7.0 | 13.0 | 0.00 | 0.00 | 0.00 | 10 | 1011.3 |
| 20260508224609 | 93 | 265 | 6.0 | 12.0 | 0.00 | 0.00 | 0.00 | 9 | 1011.2 |
| 20260508224048 | 92 | 246 | 6.0 | 17.0 | 0.00 | 0.00 | 0.00 | 8 | 1011.3 |
| 20260508223551 | 92 | 309 | 8.0 | 17.0 | 0.00 | 0.00 | 0.00 | 9 | 1011.5 |
| 20260508223052 | 92 | 304 | 7.0 | 14.0 | 0.00 | 0.00 | 0.00 | 10 | 1011.4 |
| 20260508222551 | 92 | 308 | 7.0 | 14.0 | 0.00 | 0.00 | 0.00 | 10 | 1011.5 |
| 20260508222048 | 92 | 294 | 4.0 | 16.0 | 0.00 | 0.00 | 0.00 | 10 | 1011.7 |
| 20260508221602 | 92 | 298 | 8.0 | 16.0 | 0.00 | 0.00 | 0.00 | 10 | 1011.7 |
| 20260508221050 | 93 | 255 | 6.0 | 14.0 | 0.00 | 0.00 | 0.00 | 9 | 1011.8 |
| 20260508220552 | 92 | 285 | 6.0 | 18.0 | 0.00 | 0.00 | 0.00 | 10 | 1011.8 |
| 20260508220053 | 92 | 278 | 8.0 | 18.0 | 0.00 | 0.00 | 0.00 | 12 | 1011.8 |
| 20260508215551 | 92 | 243 | 9.0 | 18.0 | 0.00 | 0.00 | 0.00 | 11 | 1012.0 |
| 20260508215048 | 92 | 342 | 3.0 | 14.0 | 0.00 | 0.00 | 0.00 | 12 | 1012.0 |
| 20260508214553 | 92 | 278 | 8.0 | 14.0 | 0.00 | 0.00 | 0.00 | 10 | 1012.2 |
| 20260508214052 | 92 | 302 | 6.0 | 14.0 | 0.00 | 0.00 | 0.00 | 11 | 1012.1 |
| 20260508213551 | 92 | 306 | 7.0 | 14.0 | 0.00 | 0.00 | 0.00 | 10 | 1012.4 |
| 20260508213053 | 92 | 294 | 5.0 | 16.0 | 0.00 | 0.00 | 0.00 | 10 | 1012.2 |
| 20260508212552 | 92 | 294 | 8.0 | 16.0 | 0.00 | 0.00 | 0.00 | 10 | 1012.3 |
| 20260508212054 | 92 | 317 | 6.0 | 12.0 | 0.00 | 0.00 | 0.00 | 11 | 1012.2 |
| 20260508211556 | 92 | 325 | 5.0 | 14.0 | 0.00 | 0.00 | 0.00 | 10 | 1012.3 |
| 20260508211048 | 91 | 275 | 5.0 | 16.0 | 0.00 | 0.00 | 0.00 | 12 | 1012.5 |
| 20260508210551 | 91 | 360 | 7.0 | 16.0 | 0.00 | 0.00 | 0.00 | 12 | 1012.6 |
| 20260508210052 | 92 | 360 | 8.0 | 16.0 | 0.00 | 0.00 | 0.00 | 11 | 1012.5 |
| 20260508205551 | 91 | 360 | 3.0 | 14.0 | 0.00 | 0.00 | 0.00 | 12 | 1012.6 |
| 20260508205048 | 91 | 271 | 8.0 | 16.0 | 0.00 | 0.00 | 0.00 | 12 | 1012.7 |
| 20260508204554 | 91 | 294 | 7.0 | 16.0 | 0.00 | 0.00 | 0.00 | 12 | 1012.8 |
| 20260508204048 | 91 | 253 | 7.0 | 13.0 | 0.00 | 0.00 | 0.00 | 11 | 1012.8 |
| 20260508203549 | 91 | 313 | 5.0 | 13.0 | 0.00 | 0.00 | 0.00 | 12 | 1012.8 |
| 20260508203059 | 91 | 302 | 5.0 | 15.0 | 0.00 | 0.00 | 0.00 | 12 | 1012.8 |
| 20260508202552 | 91 | 274 | 7.0 | 15.0 | 0.00 | 0.00 | 0.00 | 12 | 1012.9 |
| 20260508202049 | 91 | 347 | 6.0 | 12.0 | 0.00 | 0.00 | 0.00 | 13 | 1013.1 |
| 20260508201553 | 90 | 340 | 7.0 | 14.0 | 0.00 | 0.00 | 0.00 | 13 | 1013.2 |
| 20260508201053 | 90 | 302 | 6.0 | 14.0 | 0.00 | 0.00 | 0.00 | 13 | 1013.2 |
| 20260508200556 | 90 | 280 | 5.0 | 16.0 | 0.00 | 0.00 | 0.00 | 12 | 1013.2 |
| 20260508200107 | 90 | 360 | 7.0 | 16.0 | 0.00 | 0.00 | 0.00 | 13 | 1013.2 |
| 20260508195552 | 90 | 360 | 7.0 | 13.0 | 0.00 | 0.00 | 0.00 | 11 | 1013.4 |
| 20260508195049 | 89 | 360 | 8.0 | 12.0 | 0.00 | 0.00 | 0.00 | 14 | 1013.3 |
| 20260508194551 | 89 | 360 | 5.0 | 14.0 | 0.00 | 0.00 | 0.00 | 13 | 1013.4 |
| 20260508194048 | 89 | 360 | 7.0 | 15.0 | 0.00 | 0.00 | 0.00 | 14 | 1013.5 |
| 20260508193548 | 89 | 360 | 5.0 | 15.0 | 0.00 | 0.00 | 0.00 | 14 | 1013.7 |
| 20260508193102 | 89 | 360 | 7.0 | 14.0 | 0.00 | 0.00 | 0.00 | 13 | 1013.6 |
| 20260508192548 | 89 | 360 | 5.0 | 14.0 | 0.00 | 0.00 | 0.00 | 14 | 1013.7 |
| 20260508192049 | 89 | 360 | 4.0 | 15.0 | 0.00 | 0.00 | 0.00 | 14 | 1013.7 |
| 20260508191551 | 88 | 360 | 7.0 | 15.0 | 0.00 | 0.00 | 0.00 | 15 | 1013.8 |
| 20260508191048 | 88 | 360 | 5.0 | 13.0 | 0.00 | 0.00 | 0.00 | 14 | 1013.9 |
| 20260508190549 | 88 | 360 | 6.0 | 13.0 | 0.00 | 0.00 | 0.00 | 15 | 1013.9 |
| 20260508190053 | 88 | 360 | 4.0 | 12.0 | 0.00 | 0.00 | 0.00 | 15 | 1014.0 |
| 20260508185551 | 88 | 360 | 6.0 | 12.0 | 0.00 | 0.00 | 0.00 | 15 | 1014.0 |
| 20260508185053 | 87 | 360 | 3.0 | 16.0 | 0.00 | 0.00 | 0.00 | 16 | 1014.1 |
| 20260508184552 | 87 | 360 | 6.0 | 16.0 | 0.00 | 0.00 | 0.00 | 15 | 1014.3 |
| 20260508184055 | 87 | 360 | 8.0 | 14.0 | 0.00 | 0.00 | 0.00 | 16 | 1014.3 |
| 20260508183548 | 86 | 360 | 2.0 | 15.0 | 0.00 | 0.00 | 0.00 | 16 | 1014.2 |
| 20260508183116 | 86 | 0 | 5.0 | 15.0 | 0.00 | 0.00 | 0.00 | 16 | 1014.3 |
| 20260508182549 | 86 | 360 | 6.0 | 13.0 | 0.00 | 0.00 | 0.00 | 16 | 1014.4 |
| 20260508182056 | 86 | 360 | 4.0 | 9.0 | 0.00 | 0.00 | 0.00 | 16 | 1014.4 |
| 20260508181610 | 86 | 360 | 3.0 | 6.0 | 0.00 | 0.00 | 0.00 | 17 | 1014.4 |
| 20260508181048 | 85 | 360 | 0.0 | 10.0 | 0.00 | 0.00 | 0.00 | 18 | 1014.4 |
| 20260508180552 | 85 | 360 | 4.0 | 10.0 | 0.00 | 0.00 | 0.00 | 18 | 1014.5 |
| 20260508180054 | 84 | 360 | 5.0 | 9.0 | 0.00 | 0.00 | 0.00 | 18 | 1014.5 |
| 20260508175555 | 85 | 360 | 4.0 | 8.0 | 0.00 | 0.00 | 0.00 | 18 | 1014.6 |
| 20260508175055 | 84 | 350 | 3.0 | 6.0 | 0.00 | 0.00 | 0.00 | 18 | 1014.7 |
| 20260508174553 | 83 | 360 | 1.0 | 8.0 | 0.00 | 0.00 | 0.00 | 19 | 1014.8 |
| 20260508174051 | 83 | 360 | 2.0 | 8.0 | 0.00 | 0.00 | 0.00 | 19 | 1014.9 |
| 20260508173554 | 83 | 360 | 3.0 | 7.0 | 0.00 | 0.00 | 0.00 | 19 | 1014.9 |